Location: Freiburg+im+Breisgau
(48.0359°N, 7.8195°E)
Time: 20:38:35
(UTC+01:00)

ISS - Pass Details

Date: 15 November 2017
Orbit: 402 x 407 km, 51.6° (Epoch: 20 November)

Event Time Altitude Azimuth Distance (km) Brightness Sun altitude
Exits shadow 06:28:09 16° 261° (W) 1,139 -2.1 -11.3°
Maximum altitude 06:29:50 24° 218° (SW) 877 -2.4 -11.0°
Drops below altitude 10° 06:32:32 10° 162° (SSE) 1,449 -0.5 -10.6°
Sets 06:34:49 0° 148° (SSE) 2,304 0.8 -10.2°
